AB4KY Weather Reports


time (UTC)temp
F
wind
direction
speed
knots
gust
knots
rain 1hr
in
rain 24hr
in
rain mn
in
humidity
%
barometer
mb
20260905224119 90 195 0.0 0.0 0.00 0.27 0.27 69 1009.3
20260905223616 90 195 0.0 0.0 0.00 0.27 0.27 68 1009.4
20260905223113 90 195 0.0 0.0 0.00 0.27 0.27 66 1009.3
20260905222613 91 195 0.0 0.0 0.00 0.27 0.27 67 1009.0
20260905222108 91 195 0.0 0.0 0.00 0.27 0.27 65 1009.1
20260905221604 91 195 0.0 0.0 0.00 0.27 0.27 65 1009.2
20260905221100 90 195 0.0 0.0 0.00 0.27 0.27 68 1009.5
20260905220555 91 195 0.0 0.0 0.00 0.27 0.27 67 1009.4
20260905220051 91 195 0.0 0.0 0.00 0.27 0.27 67 1009.5
20260905215550 91 180 0.0 1.7 0.00 0.27 0.27 64 1009.4
20260905215047 91 180 2.6 2.6 0.00 0.27 0.27 62 1009.2
20260905214543 91 209 0.0 2.6 0.00 0.27 0.27 63 1009.2
20260905214037 91 203 0.0 1.7 0.00 0.27 0.27 64 1009.4
20260905213532 91 196 0.0 1.7 0.00 0.27 0.27 64 1009.5
20260905213028 91 180 0.0 1.7 0.00 0.27 0.27 62 1009.2
20260905212522 91 190 1.7 2.6 0.00 0.27 0.27 63 1009.3
20260905212022 91 180 0.9 2.6 0.00 0.27 0.27 63 1009.5
20260905211517 91 98 0.0 1.7 0.00 0.27 0.27 65 1009.5
20260905211013 91 195 0.0 1.7 0.00 0.27 0.27 62 1009.3
20260905210509 91 185 0.0 1.7 0.00 0.27 0.27 61 1009.5
20260905210009 91 187 0.0 0.9 0.00 0.27 0.27 64 1009.5
20260905205503 90 29 0.0 0.0 0.00 0.27 0.27 63 1009.5
20260905205002 91 32 1.7 1.7 0.00 0.27 0.27 64 1009.7
20260905204457 91 340 0.0 1.7 0.00 0.27 0.27 61 1009.9
20260905203956 92 261 0.9 2.6 0.00 0.27 0.27 59 1009.7
20260905203452 91 187 3.5 3.5 0.00 0.27 0.27 62 1009.8
20260905202947 91 29 0.0 1.7 0.00 0.27 0.27 63 1009.7
20260905202442 93 15 0.0 0.9 0.00 0.27 0.27 60 1010.0
20260905201938 91 23 0.0 0.9 0.00 0.27 0.27 61 1009.9
20260905201433 92 26 0.9 1.7 0.00 0.27 0.27 61 1010.0
20260905200927 93 262 0.9 2.6 0.00 0.27 0.27 60 1010.1
20260905200423 93 206 0.9 2.6 0.00 0.27 0.27 58 1010.2
20260905195921 93 168 1.7 2.6 0.00 0.27 0.27 56 1010.2
20260905195417 93 270 0.9 1.7 0.00 0.27 0.27 58 1010.4
20260905194912 93 114 0.0 3.5 0.00 0.27 0.27 58 1010.2
20260905194411 93 180 0.0 1.7 0.00 0.27 0.27 58 1010.7
20260905193906 94 192 0.0 2.6 0.00 0.27 0.27 55 1010.4
20260905193401 94 180 0.0 2.6 0.00 0.27 0.27 58 1010.7
20260905192856 93 270 0.0 0.9 0.00 0.27 0.27 57 1010.6
20260905192351 93 353 0.9 2.6 0.00 0.27 0.27 58 1010.8
20260905191851 94 286 0.0 1.7 0.00 0.27 0.27 59 1010.8
20260905191350 92 8 0.0 3.5 0.00 0.27 0.27 58 1010.7
20260905190849 93 346 1.7 1.7 0.00 0.27 0.27 61 1011.1
20260905190343 94 139 1.7 2.6 0.00 0.27 0.27 59 1010.8
20260905185841 94 245 0.0 1.7 0.00 0.27 0.27 57 1010.9
20260905185337 94 254 1.7 2.6 0.00 0.27 0.27 57 1011.1
20260905184830 94 192 0.9 4.3 0.00 0.27 0.27 55 1011.4
20260905184330 94 23 0.0 0.9 0.00 0.27 0.27 57 1011.1
20260905183828 94 180 3.5 3.5 0.00 0.27 0.27 54 1011.4
20260905183324 93 180 0.0 2.6 0.00 0.27 0.27 56 1011.3
20260905182824 93 45 1.7 1.7 0.00 0.27 0.27 57 1011.5
20260905182317 93 160 0.0 2.6 0.00 0.27 0.27 58 1011.7
20260905181813 92 331 0.0 2.6 0.00 0.27 0.27 57 1011.7
20260905181307 92 17 1.7 3.5 0.00 0.27 0.27 59 1011.4
20260905180806 92 191 2.6 3.5 0.00 0.27 0.27 56 1011.6
20260905180301 92 203 2.6 5.2 0.00 0.27 0.27 56 1011.5
20260905175756 91 105 0.0 4.3 0.00 0.27 0.27 58 1011.9
20260905175251 91 82 0.0 3.5 0.00 0.27 0.27 57 1011.8
20260905174746 90 192 0.0 3.5 0.00 0.27 0.27 62 1011.9
20260905174242 90 270 0.0 2.6 0.00 0.27 0.27 58 1012.0
20260905173737 89 75 0.9 4.3 0.00 0.27 0.27 58 1012.2
20260905173233 91 213 1.7 3.5 0.00 0.27 0.27 61 1011.8
20260905172727 90 201 1.7 3.5 0.00 0.27 0.27 60 1011.9
20260905172227 89 180 1.7 2.6 0.00 0.27 0.27 59 1012.2
20260905171723 89 186 2.6 5.2 0.00 0.27 0.27 60 1012.3
20260905171219 89 15 0.9 2.6 0.00 0.27 0.27 59 1012.1
20260905170715 89 192 1.7 4.3 0.00 0.27 0.27 59 1012.4
20260905170210 89 315 1.7 3.5 0.00 0.27 0.27 59 1012.2
20260905165709 88 112 0.0 4.3 0.00 0.27 0.27 59 1012.3
20260905165205 87 120 0.9 4.3 0.00 0.27 0.27 61 1012.5
20260905164700 88 204 0.0 5.2 0.00 0.27 0.27 60 1012.6
20260905164159 87 207 3.5 5.2 0.00 0.27 0.27 60 1012.7
20260905163655 86 222 2.6 5.2 0.00 0.27 0.27 62 1012.9
20260905163152 88 173 0.0 2.6 0.00 0.27 0.27 61 1013.1
20260905162648 88 90 0.9 1.7 0.00 0.27 0.27 65 1013.1
20260905162146 86 204 1.7 5.2 0.00 0.27 0.27 60 1013.1
20260905161641 86 299 1.7 6.1 0.00 0.27 0.27 61 1012.9
20260905161139 86 221 1.7 2.6 0.00 0.27 0.27 65 1012.9
20260905160639 86 172 1.7 7.0 0.00 0.27 0.27 64 1012.7
20260905160133 86 187 0.9 3.5 0.00 0.27 0.27 63 1012.8
20260905155633 85 221 1.7 3.5 0.00 0.27 0.27 64 1012.9
20260905155131 86 346 0.0 2.6 0.00 0.27 0.27 65 1012.8
20260905154626 84 101 1.7 2.6 0.00 0.27 0.27 75 1012.8
20260905154122 86 197 1.7 1.7 0.00 0.27 0.27 68 1012.6
20260905153617 85 150 0.0 5.2 0.00 0.27 0.27 68 1012.6
20260905153112 85 229 2.6 4.3 0.00 0.27 0.27 66 1012.6
20260905152608 87 194 2.6 2.6 0.00 0.27 0.27 66 1012.8
20260905152102 85 60 0.0 1.7 0.00 0.27 0.27 69 1012.8
20260905151557 84 200 2.6 3.5 0.00 0.27 0.27 68 1012.5
20260905151052 83 270 0.0 4.3 0.00 0.27 0.27 73 1012.9
20260905150548 83 192 1.7 1.7 0.00 0.27 0.27 74 1012.9
20260905150046 82 198 1.7 3.5 0.00 0.27 0.27 72 1012.7
20260905145539 82 262 0.9 4.3 0.00 0.27 0.27 73 1013.0
20260905145038 82 239 1.7 6.1 0.00 0.27 0.27 73 1013.1
20260905144533 82 210 2.6 3.5 0.00 0.27 0.27 71 1013.2
20260905144032 82 200 0.9 4.3 0.00 0.27 0.27 74 1013.1
20260905143532 81 8 0.0 2.6 0.00 0.27 0.27 76 1013.2
20260905143027 80 198 4.3 4.3 0.00 0.27 0.27 78 1013.0
20260905142526 80 126 0.9 5.2 0.00 0.27 0.27 79 1012.9
20260905142021 80 168 1.7 2.6 0.00 0.27 0.27 77 1013.3
20260905141515 79 216 2.6 5.2 0.00 0.27 0.27 76 1013.2
20260905141012 79 157 0.0 2.6 0.00 0.27 0.27 78 1013.6
20260905140507 79 192 0.9 4.3 0.00 0.27 0.27 79 1013.5
20260905140005 79 195 0.0 3.5 0.00 0.27 0.27 79 1013.6
20260905135501 78 212 0.0 1.7 0.00 0.27 0.27 81 1013.5
20260905134956 78 120 0.0 3.5 0.00 0.27 0.27 84 1013.7
20260905134455 78 190 1.7 3.5 0.00 0.27 0.27 81 1013.6
20260905133954 77 198 0.0 1.7 0.00 0.27 0.27 83 1013.8
20260905133450 76 173 0.0 2.6 0.00 0.27 0.27 86 1013.8
20260905132944 74 120 0.0 2.6 0.00 0.27 0.27 92 1013.7
20260905132439 72 111 0.0 1.7 0.00 0.27 0.27 96 1013.8
20260905131933 71 79 1.7 1.7 0.00 0.27 0.27 98 1013.8
20260905131430 70 33 1.7 1.7 0.00 0.27 0.27 99 1013.6
20260905130924 70 8 1.7 2.6 0.00 0.27 0.27 99 1013.6
20260905130423 70 52 1.7 4.3 0.00 0.27 0.27 99 1013.7
20260905125918 70 52 1.7 2.6 0.00 0.27 0.27 99 1013.8
20260905125413 70 237 0.0 2.6 0.00 0.27 0.27 99 1013.9
20260905124908 70 109 0.0 2.6 0.00 0.27 0.27 99 1014.3
20260905124405 70 98 0.0 2.6 0.00 0.27 0.27 99 1014.0
20260905123904 70 66 0.9 4.3 0.00 0.27 0.27 99 1013.8
20260905123401 70 75 0.0 3.5 0.00 0.27 0.27 99 1013.9
20260905122856 70 41 1.7 3.5 0.00 0.27 0.27 99 1014.0
20260905122355 71 75 0.0 2.6 0.00 0.27 0.27 99 1014.1
20260905121851 71 74 0.0 2.6 0.00 0.27 0.27 99 1014.4
20260905121347 71 74 0.9 2.6 0.00 0.27 0.27 99 1014.2
20260905120846 71 145 0.9 2.6 0.00 0.27 0.27 99 1014.3
20260905120340 71 74 1.7 1.7 0.00 0.27 0.27 99 1014.1
20260905115836 72 90 0.0 3.5 0.00 0.27 0.27 99 1014.1
20260905115335 72 126 0.9 6.1 0.00 0.27 0.27 99 1014.0
20260905114834 72 157 0.0 1.7 0.00 0.27 0.27 99 1012.4
20260905114334 72 164 1.7 1.7 0.00 0.27 0.27 99 1012.2
20260905113828 72 106 0.0 0.9 0.00 0.27 0.27 99 1012.4
20260905113324 72 135 1.7 1.7 0.00 0.27 0.27 99 1012.2
20260905112819 72 154 0.9 1.7 0.00 0.27 0.27 99 1012.3
20260905112313 72 120 0.9 1.7 0.00 0.27 0.27 99 1012.3
20260905111808 71 106 0.0 0.9 0.00 0.27 0.27 99 1012.2
20260905111303 71 103 0.0 1.7 0.02 0.27 0.27 99 1012.1
20260905110802 71 23 0.0 2.6 0.24 0.27 0.27 99 1012.0
20260905110256 71 214 4.3 7.0 0.35 0.27 0.27 99 1012.2
20260905105752 72 170 1.7 4.3 0.07 0.22 0.22 99 1012.5
20260905105251 72 183 2.6 2.6 0.02 0.21 0.21 99 1012.4
20260905104745 72 166 0.9 2.6 0.05 0.21 0.21 99 1012.1
20260905104241 71 331 0.0 2.6 0.31 0.20 0.20 99 1011.9
20260905103736 72 45 2.6 2.6 1.21 0.20 0.20 96 1011.4
20260905103232 76 194 4.3 4.3 0.52 0.09 0.09 97 1013.1
20260905102727 76 257 1.7 1.7 0.00 0.00 0.00 94 1012.5
20260905102224 76 28 1.7 2.6 0.00 0.00 0.00 95 1012.1
20260905101723 76 29 0.0 2.6 0.00 0.00 0.00 94 1012.3
20260905101221 76 4 1.7 2.6 0.00 0.00 0.00 93 1011.9
20260905100718 76 15 0.0 0.9 0.00 0.00 0.00 96 1012.0
20260905100213 76 66 0.0 0.9 0.00 0.00 0.00 97 1011.7
20260905095712 76 162 0.0 1.7 0.00 0.00 0.00 97 1011.9
20260905095207 76 176 0.0 2.6 0.00 0.00 0.00 97 1012.1
20260905094706 76 188 1.7 3.5 0.00 0.00 0.00 97 1012.0
20260905094201 75 180 3.5 3.5 0.00 0.00 0.00 98 1012.1
20260905093655 76 23 1.7 1.7 0.00 0.00 0.00 98 1011.5
20260905093152 76 180 0.0 2.6 0.00 0.00 0.00 98 1011.1
20260905092646 75 74 0.0 1.7 0.00 0.00 0.00 99 1011.1
20260905092142 75 59 1.7 2.6 0.00 0.00 0.00 99 1011.1
20260905091642 75 13 4.3 5.2 0.00 0.00 0.00 99 1011.4
20260905091142 75 99 0.0 0.0 0.00 0.00 0.00 99 1010.9
20260905090636 75 99 0.0 0.9 0.00 0.00 0.00 99 1011.1
20260905090132 75 172 0.0 0.9 0.00 0.00 0.00 99 1011.3
20260905085631 74 90 0.0 0.0 0.00 0.00 0.00 99 1011.1
20260905085126 75 90 0.0 0.9 0.00 0.00 0.00 99 1011.3
20260905084626 75 99 0.0 2.6 0.00 0.00 0.00 99 1011.3
20260905084120 75 180 0.0 0.9 0.00 0.00 0.00 99 1011.3
20260905083615 74 180 0.0 0.9 0.00 0.00 0.00 99 1011.5
20260905083112 74 286 0.0 1.7 0.00 0.00 0.00 99 1011.4
20260905082607 74 285 2.6 2.6 0.00 0.00 0.00 99 1011.5
20260905082103 74 99 0.0 0.9 0.00 0.00 0.00 99 1011.1
20260905081602 74 99 0.0 0.0 0.00 0.00 0.00 99 1011.1
20260905081056 75 90 0.0 0.0 0.00 0.00 0.00 99 1010.8
20260905080551 75 90 0.0 0.0 0.00 0.00 0.00 99 1010.9
20260905080045 75 120 0.0 0.9 0.00 0.00 0.00 99 1010.7
20260905075538 75 106 0.0 0.9 0.00 0.00 0.00 99 1010.6
20260905075033 75 90 0.0 0.9 0.00 0.00 0.00 99 1010.8
20260905074527 75 180 0.0 0.9 0.00 0.00 0.00 99 1010.9
20260905074023 75 180 0.0 0.0 0.00 0.00 0.00 99 1011.0
20260905073518 75 180 0.0 0.0 0.00 0.00 0.00 99 1010.9
20260905073014 74 172 0.0 0.0 0.00 0.00 0.00 99 1011.3
20260905072513 74 90 0.0 0.0 0.00 0.00 0.00 99 1011.3
20260905072008 74 99 0.0 0.0 0.00 0.00 0.00 99 1011.3
20260905071505 74 99 0.0 0.0 0.00 0.00 0.00 99 1011.4
20260905071000 74 99 0.0 0.0 0.00 0.00 0.00 99 1011.5
20260905070456 74 99 0.0 0.0 0.00 0.00 0.00 99 1011.5
20260905065955 75 90 0.0 0.9 0.00 0.00 0.00 99 1011.5
20260905065454 75 99 0.0 0.0 0.00 0.00 0.00 98 1011.5
20260905064949 75 90 0.0 0.9 0.00 0.00 0.00 98 1011.5
20260905064444 75 98 0.9 0.9 0.00 0.00 0.00 98 1011.4
20260905063939 75 90 0.0 0.9 0.00 0.00 0.00 98 1011.5
20260905063433 75 90 0.0 0.9 0.00 0.00 0.00 97 1011.5
20260905062930 75 81 0.0 0.9 0.00 0.00 0.00 97 1011.9
20260905062423 76 127 0.0 1.7 0.00 0.00 0.00 97 1011.7
20260905061919 75 151 0.0 0.9 0.00 0.00 0.00 97 1011.7
20260905061413 75 180 0.9 0.9 0.00 0.00 0.00 97 1011.8
20260905060912 75 180 0.0 0.9 0.00 0.00 0.00 97 1012.0
20260905060409 75 106 0.0 0.9 0.00 0.00 0.00 97 1012.0
20260905055908 75 114 0.0 0.0 0.00 0.00 0.00 97 1012.0
20260905055404 75 114 0.0 0.9 0.00 0.00 0.00 97 1012.0
20260905054902 75 114 0.0 0.0 0.00 0.00 0.00 97 1012.2
20260905054359 75 111 0.0 0.9 0.00 0.00 0.00 97 1012.3
20260905053858 75 99 0.0 0.0 0.00 0.00 0.00 98 1012.4
20260905053353 75 99 0.0 0.0 0.00 0.00 0.00 97 1012.4
20260905052849 75 81 0.0 0.9 0.00 0.00 0.00 97 1012.4
20260905052348 75 90 0.0 0.9 0.00 0.00 0.00 97 1012.1
20260905051848 75 105 0.0 0.9 0.00 0.00 0.00 97 1012.2
20260905051344 75 114 0.0 1.7 0.00 0.00 0.00 97 1012.3
20260905050841 75 120 0.0 0.0 0.00 0.00 0.00 97 1012.2
20260905050337 76 109 0.0 0.9 0.00 0.00 0.00 97 1012.2
20260905045831 76 81 0.0 0.0 0.00 0.00 0.00 96 1012.2
20260905045326 76 98 0.0 0.0 0.00 0.00 0.00 96 1012.3
20260905044822 76 98 0.0 0.0 0.00 0.00 0.00 96 1012.3
20260905044317 76 98 0.0 0.0 0.00 0.00 0.00 96 1012.3
20260905043815 77 90 0.0 1.7 0.00 0.00 0.00 96 1012.2
20260905043311 76 106 0.0 0.9 0.00 0.00 0.00 95 1012.6
20260905042810 76 117 0.0 0.9 0.00 0.00 0.00 95 1012.5
20260905042307 77 81 0.0 0.0 0.00 0.00 0.00 95 1012.4
20260905041800 77 81 0.0 0.0 0.00 0.00 0.00 95 1012.4
20260905041256 77 99 0.0 0.9 0.00 0.00 0.00 95 1012.4
20260905040751 77 105 0.0 0.0 0.00 0.00 0.00 95 1012.6
20260905040249 78 105 0.0 1.7 0.00 0.00 0.00 94 1012.4
20260905035744 77 120 0.0 0.9 0.00 0.00 0.00 94 1012.5
20260905035240 78 165 0.0 1.7 0.00 0.00 0.00 95 1012.5
20260905034737 78 114 0.0 0.0 0.00 0.00 0.00 94 1012.5
20260905034231 78 114 0.0 0.0 0.00 0.00 0.00 94 1012.6
20260905033730 78 114 0.0 0.9 0.00 0.00 0.00 94 1012.5
20260905033225 78 168 0.0 0.0 0.00 0.00 0.00 94 1012.5
20260905032725 78 172 0.0 0.0 0.00 0.00 0.00 94 1012.6
20260905032220 78 81 0.0 0.9 0.00 0.00 0.00 95 1012.6
20260905031715 78 114 0.0 1.7 0.00 0.00 0.00 95 1012.5
20260905031211 78 117 0.0 1.7 0.00 0.00 0.00 95 1012.7
20260905030706 78 106 0.0 0.9 0.00 0.00 0.00 95 1012.9
20260905030201 78 114 0.0 0.0 0.00 0.00 0.00 95 1012.8
20260905025655 78 90 0.0 0.0 0.00 0.00 0.00 95 1012.6
20260905025151 78 60 0.9 0.9 0.00 0.00 0.00 96 1012.9
20260905024647 78 106 0.0 0.0 0.00 0.00 0.00 96 1012.7
20260905024142 78 114 0.0 0.9 0.00 0.00 0.00 96 1012.6
20260905023638 78 90 0.0 0.9 0.00 0.00 0.00 95 1012.7
20260905023137 79 111 0.0 0.9 0.00 0.00 0.00 95 1012.5
20260905022636 79 99 0.0 0.9 0.00 0.00 0.00 95 1012.4
20260905022131 79 114 0.0 0.0 0.00 0.00 0.00 95 1012.6
20260905021626 79 106 0.0 0.9 0.00 0.00 0.00 94 1012.5
20260905021122 80 188 0.0 0.0 0.00 0.00 0.00 93 1012.5
20260905020621 80 188 0.0 0.0 0.00 0.00 0.00 92 1012.4
20260905020117 80 188 0.0 0.0 0.00 0.00 0.00 92 1012.5
20260905015615 80 188 0.0 0.9 0.00 0.00 0.00 91 1012.4
20260905015110 80 180 0.0 0.9 0.00 0.00 0.00 92 1012.2
20260905014603 80 172 0.0 0.0 0.00 0.00 0.00 91 1012.3
20260905014100 80 172 0.0 0.0 0.00 0.00 0.00 91 1012.2
20260905013555 80 172 0.0 0.0 0.00 0.00 0.00 92 1012.2
20260905013052 80 172 0.0 0.0 0.00 0.00 0.00 91 1012.1
20260905012550 80 172 0.0 0.0 0.00 0.00 0.00 90 1012.1
20260905012048 80 172 0.0 0.0 0.00 0.00 0.00 89 1012.0
20260905011543 81 172 0.0 0.0 0.00 0.00 0.00 87 1012.2
20260905011038 81 172 0.0 0.0 0.00 0.00 0.00 87 1012.0
20260905010533 82 172 0.0 0.0 0.00 0.00 0.00 88 1011.8
20260905010030 82 172 0.0 0.0 0.00 0.00 0.00 86 1011.8
20260905005525 82 172 0.0 0.0 0.00 0.00 0.00 84 1011.6
20260905005021 82 180 0.0 0.0 0.00 0.00 0.00 85 1011.8
20260905004521 83 180 0.0 0.0 0.00 0.00 0.00 84 1011.5
20260905004015 83 180 0.0 0.0 0.00 0.00 0.00 83 1011.4
20260905003512 83 90 0.0 0.0 0.00 0.00 0.00 84 1011.4
20260905003007 83 114 0.0 0.0 0.00 0.00 0.00 83 1011.6
20260905002502 84 180 0.0 0.0 0.00 0.00 0.00 83 1011.4
20260905001956 84 180 0.0 0.0 0.00 0.00 0.00 82 1011.3
20260905001450 85 180 0.0 0.0 0.00 0.00 0.00 81 1011.3
20260905000944 85 172 0.0 0.9 0.00 0.00 0.00 80 1011.3
20260905000435 86 180 0.0 0.9 0.00 0.00 0.00 80 1011.3
20260904235930 86 180 0.0 0.0 0.00 0.00 0.00 80 1011.4
20260904235426 86 180 0.0 0.0 0.00 0.00 0.00 79 1011.5
20260904234925 87 180 0.0 0.0 0.00 0.00 0.00 78 1011.1
20260904234420 87 180 0.0 0.0 0.00 0.00 0.00 78 1011.3
20260904233916 87 180 0.0 0.0 0.00 0.00 0.00 75 1011.0
20260904233411 88 180 0.0 0.9 0.00 0.00 0.00 78 1011.3
20260904232908 88 180 0.0 0.0 0.00 0.00 0.00 78 1011.4
20260904232404 89 180 0.0 0.0 0.00 0.00 0.00 76 1011.5
20260904231900 89 180 0.0 0.0 0.00 0.00 0.00 75 1011.4
20260904231355 90 180 0.0 0.9 0.00 0.00 0.00 73 1011.3
20260904230850 90 180 0.0 0.9 0.00 0.00 0.00 71 1011.4
20260904230349 90 187 0.9 0.9 0.00 0.00 0.00 71 1011.5
20260904225844 91 174 0.9 0.9 0.00 0.00 0.00 70 1011.5
20260904225342 91 180 0.0 1.7 0.00 0.00 0.00 68 1011.5
20260904224841 91 180 0.0 0.0 0.00 0.00 0.00 68 1011.7